CAPE
17 0 35 76 159 36 28 46 27 29 23 37 43 49 19 41 23 0 24 43 198 111 546 852 605 796 884 1129 1284 1435 1152 1038 1359 1210 1238 1182 1603 1343 1580 1522 1380 1234 1268 1191 1465 1371 1339 1274 1091
27 58 5 194 20 58 19 45 26 27 21 36 35 32 18 2 0 18 33 92 18 297 396 486 930 1241 678 1089 1163 1158 1277 1128 1451 1038 1311 1193 1379 1451 1478 1564 1119 1058 1083 1141 1144 1008 1007 1045 1050
242 94 31 29 22 35 54 36 23 20 56 126 52 32 20 9 12 25 32 101 293 248 3 650 646 640 806 1239 1234 1435 1306 1230 1214 1399 1133 1156 1580 1546 1137 1105 1192 1260 1232 1255 1193 1014 1020 960 912
38 108 2 180 50 54 101 18 0 27 79 101 48 23 13 29 18 12 41 165 270 230 515 686 898 962 509 1115 1112 1321 1186 1442 1536 865 1084 1428 1199 1240 1515 1223 1291 1140 1106 1172 1219 1312 1241 1176 1176
0 0 2 34 84 92 151 98 46 7 24 37 14 10 2 11 7 16 17 101 109 105 249 882 402 689 1213 184 969 836 417 573 525 642 1476 1012 1134 1315 1315 829 646 615 677 753 765 692 1029 995 957
0 0 1 3 163 192 192 98 171 135 86 122 35 7 2 0 7 14 32 82 51 0 302 724 238 1040 1199 321 1383 1499 1451 921 745 970 1170 1059 1053 918 745 506 318 190 196 216 257 339 457 746 933
4 8 0 9 259 111 240 164 261 168 61 13 2 1 0 0 14 35 51 94 112 79 82 214 7 965 843 440 898 1131 1165 1055 996 957 958 1066 864 570 493 544 561 689 793 1015 1032 1233 1268 1008 979
320 77 0 30 60 76 139 240 261 112 186 16 0 0 0 3 37 141 101 205 94 123 9 0 0 646 671 1144 1282 650 145 247 254 432 544 804 446 593 392 804 994 961 1025 1349 1791 1479 885 876 675
57 4 0 30 28 14 101 138 256 257 196 51 0 0 0 0 3 70 62 79 145 4 0 0 6 519 735 282 220 173 132 415 760 966 696 478 904 685 230 684 1130 1096 899 1201 1372 990 1005 827 574
65 30 15 8 77 168 382 303 247 334 292 409 0 0 0 0 3 38 126 49 59 37 0 0 207 615 619 12 2 16 263 672 942 1109 983 562 390 152 816 1126 1254 1407 1269 1181 328 302 918 418 792
7 59 0 20 60 246 150 447 299 280 322 135 0 0 0 0 0 7 2 1 37 48 204 0 150 464 111 0 10 63 660 882 1163 523 525 629 479 423 856 1364 1636 1139 1728 1386 860 1135 1332 298 652
2 52 26 106 128 138 226 341 237 288 369 82 0 0 0 0 0 0 0 0 135 63 209 0 0 16 81 50 739 678 201 272 950 822 826 1449 1223 1357 1396 1522 1148 1368 1867 1796 1248 1339 1918 1095 820
30 0 28 169 139 49 325 197 185 331 333 98 0 0 8 0 0 6 0 0 36 51 210 0 0 0 489 706 393 590 564 762 386 1168 1650 1611 335 227 619 1232 1807 970 1365 1570 1311 1087 1337 1642 1384
16 2 13 104 21 29 109 195 108 343 110 2 0 0 0 0 5 11 0 0 2 15 1 0 0 369 626 819 546 308 691 544 202 749 1149 1235 97 98 991 1404 1866 1761 1994 1845 1082 1348 1171 1083 1008
0 5 49 37 17 150 109 211 100 359 163 28 0 0 0 0 0 0 0 1 6 0 0 0 10 474 751 749 917 408 1230 596 685 1037 1297 1644 1048 1011 1502 1546 1473 2017 2433 2263 2148 2124 1924 1617 1541
0 1 65 86 223 216 154 70 195 150 264 164 21 3 0 0 0 0 4 13 1 0 0 0 116 850 845 410 798 1155 561 1195 1254 967 1283 1180 1383 665 1049 1622 1697 2257 2160 1761 1718 1811 1790 1844 1387
0 0 4 131 95 324 308 85 2 148 200 227 183 70 0 0 0 0 0 1 2 0 0 0 183 623 871 834 891 1043 505 235 1268 975 1472 1403 1162 1078 1503 1823 2129 2378 2424 1943 2136 1962 2099 1921 762
6 64 40 50 88 5 64 261 64 176 254 157 265 162 0 0 0 26 0 0 15 0 0 0 562 585 940 622 884 1044 180 440 1161 835 801 944 1386 1225 1340 2096 2483 2433 2285 1599 1969 1442 1796 2017 959
0 56 28 0 0 0 0 217 0 220 230 212 264 185 20 0 0 4 0 1 26 0 0 0 749 922 707 375 658 837 401 229 811 640 547 1181 1090 815 1508 1712 2500 2379 2334 1684 2092 1818 1383 1345 1291
0 21 4 0 0 0 0 70 10 167 239 212 258 159 71 47 57 0 51 1 23 3 0 88 824 730 465 430 705 897 1137 887 793 418 388 938 942 899 1216 1876 1933 1987 2120 2041 2259 2179 1430 1189 92
0 0 0 0 0 0 0 0 261 360 322 261 259 272 166 101 182 131 203 15 5 29 0 189 785 652 1020 820 774 1186 1043 577 257 236 381 631 750 926 1439 1705 2022 2129 2200 2374 2387 1569 1473 1106 4
0 0 0 0 0 0 28 28 637 627 443 399 300 339 243 222 185 221 229 118 0 143 5 105 944 713 1010 953 930 666 794 402 43 41 311 922 781 924 1184 1632 1863 2165 2175 2339 2105 1676 1094 311 0
0 0 0 1 1 0 24 78 365 791 642 418 332 265 344 325 258 210 210 276 1 196 155 71 766 993 719 882 1005 674 609 521 805 739 765 827 668 1095 1338 1671 1842 1994 2457 2533 2054 1644 1078 128 0
0 0 0 0 0 0 2 3 56 858 798 593 420 360 227 305 432 348 240 298 169 371 246 124 528 812 742 439 855 1142 458 515 898 813 670 610 734 1131 1490 1880 2032 2008 2562 2263 1831 1301 447 15 0
0 0 0 0 0 0 9 19 205 456 923 750 287 452 333 163 421 446 437 451 258 397 412 270 252 547 753 474 680 1042 807 766 476 964 957 595 886 1548 1616 2035 2044 2548 2185 1831 1648 1081 386 50 0
0 0 0 0 0 0 37 115 240 350 312 523 553 267 433 260 177 570 489 518 310 255 406 506 326 356 633 804 399 680 699 672 914 1013 1127 950 1201 2150 2190 2093 2208 2131 1805 1754 1520 1014 174 0 0
0 0 0 0 0 0 158 44 64 13 19 0 0 107 313 320 207 420 560 550 434 268 408 510 501 467 480 454 668 237 289 468 538 761 1066 1119 981 1334 2079 2147 2351 2144 1777 1556 1408 895 179 0 0
0 0 0 0 0 0 13 46 7 50 2 0 2 5 60 402 257 545 619 633 494 347 499 365 699 593 632 391 405 425 364 270 349 382 370 927 888 1028 1594 2093 2366 2185 1590 1414 1186 750 61 0 0
0 0 0 0 0 0 0 0 27 13 48 44 6 2 77 306 200 580 682 846 622 590 696 586 656 694 710 639 479 265 323 577 407 429 750 1799 1490 2032 2117 2061 2273 1956 1406 1172 1087 457 3 0 0
0 0 0 0 0 0 0 8 22 0 10 2 0 95 90 78 109 254 715 873 833 726 692 801 698 683 655 572 543 685 857 805 889 553 599 1208 2052 1618 1612 1987 2211 1789 1370 1080 977 578 0 0 0
CIN
-245 0 -75 -48 -1 -22 -7 -1 -40 -32 -10 -8 -22 -41 -96 -56 -26 0 -13 -21 -35 -36 -2 -1 -4 -2 -3 -1 -1 0 -3 -7 0 0 -4 -9 -1 -6 0 0 0 -1 0 0 0 0 -1 -4 -12
-162 -72 -42 -12 0 -2 -4 -15 -18 -27 -56 -35 -59 -98 -100 -18 0 -2 -5 -32 -29 -23 -20 -18 -2 0 -11 0 -2 -2 0 0 0 -5 -1 -3 0 0 0 0 -1 -6 -4 -1 -6 -11 -8 -12 -17
-39 -96 -48 -61 -16 -32 -7 -14 -44 -36 -42 -51 -83 -83 -92 -1 -3 -6 -15 -33 -33 -32 -36 -13 -6 -5 0 0 -1 0 0 0 0 0 -4 -4 0 0 -1 -4 0 -1 0 -3 -8 -17 -13 -11 -24
-117 -42 -1 -3 -23 -27 -14 -28 -2 -58 -36 -53 -121 -149 -109 -108 -16 -12 -31 -29 -27 -35 -25 -11 0 0 -17 0 -1 0 0 0 0 -27 -9 -2 -13 -10 -7 -18 -8 -18 -18 -16 -16 -15 -15 -17 -27
0 0 -19 -15 -45 -103 -24 -30 -29 -46 -36 -76 -131 -155 -43 -67 -25 -21 -18 -32 -65 -68 -46 -1 -30 -10 0 -70 -3 -13 -66 -59 -55 -41 -6 -36 -37 -27 -25 -53 -65 -62 -55 -55 -61 -66 -51 -49 -54
0 0 -25 -33 -18 -49 -9 -49 -52 -42 -33 -75 -138 -169 -3 0 -19 -20 -57 -49 -73 0 -45 -8 -56 0 0 -58 0 0 0 -27 -39 -28 -25 -35 -29 -28 -43 -67 -83 -102 -101 -100 -98 -89 -81 -69 -55
-18 -84 0 -80 -13 -110 -15 -60 -43 -46 -53 -87 -32 -157 -1 -5 -22 -11 -45 -45 -72 -103 -85 -64 -29 -2 -10 -49 -21 -13 -20 -27 -30 -30 -41 -26 -26 -74 -81 -60 -55 -64 -71 -65 -61 -39 -24 -19 -43
-121 -115 -2 -54 -40 -52 -46 -37 -50 -40 -41 -103 0 0 0 -127 -60 -11 -57 -26 -67 -87 -124 0 0 -35 -35 -16 -16 -46 -96 -76 -95 -78 -57 -35 -72 -41 -72 -51 -33 -52 -28 -37 -21 -12 -38 -66 -80
-207 -98 0 -58 -52 -142 -63 -35 -8 -25 -43 -49 0 0 0 0 -14 -46 -65 -59 -38 -102 0 0 -37 -48 -40 -81 -93 -86 -88 -70 -52 -44 -35 -77 -23 -88 -103 -80 -22 -28 -47 -57 -49 -70 -77 -67 -67
-29 -36 -68 -30 -40 -80 -51 -25 -38 -27 -27 -6 0 0 0 0 -91 -78 -37 -59 -58 -112 0 0 -64 -34 -35 -103 -19 -98 -104 -67 -38 -19 -37 -57 -82 -110 -68 -62 -36 -28 -53 -47 -112 -109 -71 -139 -94
-54 -82 0 -43 -29 -24 -25 -17 -14 -29 -21 -63 0 0 0 0 0 -121 -127 -20 -145 -78 -35 0 -63 -26 -65 0 -89 -145 -74 -46 -43 -42 -69 -79 -79 -73 -71 -47 -46 -37 -37 -45 -54 -52 -49 -110 -97
-7 -61 -40 -39 -19 -9 -14 -41 -45 -12 -46 -174 0 0 0 0 0 0 0 0 -69 -71 -29 0 0 -29 -83 -53 -28 -48 -74 -90 -53 -41 -29 -21 -45 -40 -34 -31 -33 -31 -34 -38 -59 -58 -48 -66 -73
-38 -36 -26 -27 -25 -17 -28 -21 -47 -78 -85 -150 0 0 -115 0 0 -35 0 0 -125 -73 -24 0 0 0 -36 -18 -43 -43 -58 -47 -49 -29 -17 -20 -112 -125 -93 -50 -24 -23 -31 -37 -38 -31 -32 -54 -52
-58 -45 -121 -22 -30 -8 -42 -32 -63 -42 -151 -12 0 0 0 0 -141 -107 0 0 -4 -58 -9 0 0 -35 -25 -10 -26 -42 -43 -50 -66 -38 -23 -33 -186 -206 -68 -39 -21 -17 -20 -20 -28 -32 -31 -31 -33
0 -7 -38 -22 -34 -25 -51 -31 -55 -24 -79 -178 0 0 0 0 0 0 0 -13 -15 0 0 0 -80 -38 -24 -19 -23 -29 -20 -49 -50 -27 -24 -20 -79 -76 -46 -53 -22 -23 -19 -27 -24 -34 -27 -48 -34
0 -20 -32 -19 -14 -32 -64 -91 -96 -107 -104 -103 -130 -27 0 0 0 0 -9 -14 -15 0 0 0 -113 -28 -24 -36 -18 -18 -24 -20 -28 -30 -26 -25 -38 -77 -41 -33 -23 -17 -21 -35 -45 -43 -35 -35 -34
0 -6 -9 -16 -11 -28 -51 -118 -108 -141 -141 -133 -132 -144 0 0 0 0 0 -7 -22 0 0 0 -98 -36 -28 -33 -27 -19 -21 -22 -20 -26 -25 -35 -37 -31 -41 -23 -21 -15 -28 -31 -40 -38 -32 -27 -93
-15 -52 -68 -46 -42 -38 -9 -64 -152 -142 -141 -148 -137 -168 0 0 0 -109 0 0 -79 0 0 0 -42 -40 -28 -29 -28 -20 -34 -14 -28 -25 -25 -33 -45 -66 -69 -22 -10 -20 -19 -43 -48 -88 -49 -26 -82
0 -70 -44 0 0 0 -37 -36 -1 -161 -169 -183 -141 -204 -250 0 0 -89 0 -9 -91 0 0 0 -26 -31 -38 -65 -43 -38 -22 -24 -26 -34 -56 -41 -61 -108 -58 -32 -14 -22 -26 -61 -35 -45 -85 -84 -66
0 -36 -58 0 -46 0 0 -83 -133 -183 -189 -196 -171 -182 -194 -188 -132 0 -116 -13 -175 -169 0 -134 -20 -43 -60 -55 -43 -31 -24 -21 -30 -55 -84 -68 -87 -102 -88 -36 -29 -38 -42 -54 -39 -53 -117 -132 -358
0 0 0 -11 -1 0 -40 0 -94 -191 -189 -194 -183 -153 -152 -185 -148 -121 -74 -214 -163 -277 0 -114 -37 -54 -31 -38 -33 -17 -34 -51 -101 -112 -115 -108 -113 -119 -83 -62 -43 -41 -41 -32 -33 -119 -121 -140 -77
0 0 0 0 0 0 -54 -24 -59 -125 -153 -195 -202 -146 -200 -187 -154 -120 -88 -180 0 -199 -319 -224 -26 -55 -29 -28 -34 -54 -43 -79 -180 -183 -165 -101 -127 -136 -124 -91 -75 -59 -65 -49 -65 -110 -180 -300 0
0 0 0 -4 -1 -15 -11 -29 -54 -111 -122 -232 -251 -190 -141 -185 -158 -144 -147 -133 -19 -198 -248 -316 -49 -46 -49 -41 -42 -71 -82 -87 -68 -102 -118 -142 -156 -123 -122 -101 -74 -73 -38 -34 -68 -100 -166 -373 0
0 0 0 0 0 0 -21 -5 -19 -103 -114 -201 -210 -191 -162 -163 -164 -144 -158 -147 -214 -166 -254 -326 -125 -74 -64 -127 -57 -46 -131 -114 -96 -126 -147 -159 -165 -144 -120 -98 -83 -84 -32 -47 -83 -144 -295 -283 0
0 0 0 0 0 0 -35 -26 -104 -107 -134 -191 -313 -171 -192 -146 -183 -183 -191 -184 -236 -206 -232 -299 -294 -162 -97 -152 -109 -80 -121 -126 -190 -129 -145 -189 -171 -131 -129 -87 -83 -41 -66 -90 -103 -176 -311 -455 0
0 0 0 0 0 0 -31 -25 -50 -62 -101 -89 -145 -187 -219 -197 -180 -201 -231 -209 -261 -278 -272 -249 -314 -292 -172 -121 -216 -157 -166 -167 -165 -154 -143 -172 -154 -94 -97 -77 -74 -84 -105 -105 -126 -190 -418 0 0
0 0 0 0 0 0 -43 -63 -151 -195 -144 -33 0 -268 -241 -229 -245 -232 -238 -250 -269 -326 -309 -282 -289 -295 -275 -268 -185 -312 -280 -250 -252 -225 -196 -183 -189 -160 -91 -98 -94 -104 -127 -144 -153 -219 -422 0 0
0 0 0 0 0 0 -22 -45 -18 -83 -41 0 -74 -124 -196 -227 -239 -249 -259 -259 -298 -341 -289 -361 -265 -293 -267 -329 -306 -293 -309 -333 -317 -318 -328 -245 -227 -187 -135 -104 -112 -120 -180 -182 -193 -264 -497 0 0
0 0 0 0 0 0 0 -3 -72 -33 -51 -140 -191 -97 -141 -210 -246 -247 -278 -266 -308 -288 -270 -323 -319 -303 -290 -294 -318 -388 -361 -324 -359 -362 -304 -176 -195 -140 -137 -137 -126 -151 -211 -231 -227 -359 -159 0 0
0 0 0 0 0 0 0 -29 -81 -2 -117 -77 0 -207 -119 -194 -273 -269 -252 -261 -291 -300 -299 -288 -347 -359 -339 -350 -332 -298 -288 -317 -327 -383 -355 -272 -183 -220 -209 -156 -148 -192 -228 -264 -252 -301 0 0 0
Wind_Speed
17 15 13 15 16 17 26 5 24 8 30 17 2 18 15 14 22 23 27 27 25 26 26 22 23 24 24 23 22 23 22 23 24 23 22 21 22 23 21 22 23 24 24 24 24 23 22 22 22
16 16 12 15 19 17 11 27 23 15 25 16 13 18 6 8 21 27 26 26 26 28 24 22 23 24 22 21 23 23 23 24 24 24 22 22 21 20 16 19 21 23 23 23 22 21 19 19 20
14 12 4 11 16 8 10 21 18 22 21 14 17 11 7 19 16 24 25 26 25 25 23 23 24 23 22 22 23 23 23 24 24 24 23 23 23 24 14 18 21 22 22 21 21 20 20 15 18
15 17 10 12 3 6 7 21 28 26 16 14 18 13 3 16 26 25 26 24 23 23 22 23 23 23 22 23 23 24 24 24 24 23 23 23 23 22 21 21 21 21 18 17 18 16 14 12 12
27 14 15 6 4 13 27 25 28 21 15 18 15 16 13 10 25 26 23 22 23 22 22 23 22 23 23 23 23 24 24 24 23 23 23 22 21 20 20 20 19 15 14 14 15 14 14 12 11
24 7 12 9 13 15 21 22 27 19 22 15 13 16 14 21 26 28 27 22 22 22 23 23 23 24 24 24 25 25 24 24 23 22 21 21 20 16 15 15 14 14 14 13 13 13 12 11 10
21 12 7 13 7 16 15 22 21 20 19 18 20 14 19 24 27 26 24 23 21 23 24 24 24 24 24 24 24 24 23 23 21 21 20 18 17 16 15 11 13 13 13 13 13 13 11 10 10
15 13 14 14 18 10 19 20 21 21 20 21 18 17 25 29 24 16 23 23 25 24 24 25 26 25 25 25 25 24 23 22 20 19 18 15 17 13 11 11 12 12 11 11 12 12 12 16 17
14 10 12 15 13 14 21 15 19 20 19 17 17 18 28 29 28 22 21 23 24 24 25 26 26 26 25 25 25 24 21 20 19 19 24 14 20 20 14 13 13 15 13 11 14 16 14 17 21
19 20 16 15 10 18 21 17 19 17 19 13 14 19 28 29 30 26 24 23 24 25 26 25 25 26 26 25 25 24 21 17 17 16 18 23 23 21 16 14 15 16 15 14 14 17 21 17 21
12 14 15 16 16 22 23 19 21 20 15 17 18 25 27 26 24 24 23 22 24 25 26 25 25 26 25 24 24 23 21 21 18 21 20 20 22 22 20 16 17 15 17 15 13 15 18 20 19
20 8 18 20 25 23 18 18 15 17 14 20 21 26 28 26 25 23 24 24 25 25 24 25 26 25 23 22 22 24 23 23 20 18 17 21 22 21 16 18 16 15 19 16 12 11 13 15 12
13 10 15 22 18 19 16 15 17 20 21 21 22 26 27 25 23 24 26 26 25 24 24 25 23 26 25 23 26 24 23 23 23 23 19 22 4 16 8 10 15 15 16 19 13 8 6 10 11
17 17 15 11 11 15 16 15 19 22 23 22 24 27 24 25 24 26 26 27 23 16 21 18 20 25 24 23 24 24 23 22 24 25 26 29 27 19 12 10 17 15 11 12 10 4 6 4 3
18 16 17 7 11 12 13 15 14 23 22 21 22 25 24 23 23 28 29 26 16 17 18 18 24 26 26 25 25 23 21 23 24 25 26 25 25 19 12 10 16 12 7 16 14 2 16 10 11
22 16 18 17 4 8 9 11 19 20 20 19 20 21 22 23 23 26 24 10 16 16 17 19 29 29 26 27 24 19 23 23 23 24 25 26 24 22 16 14 15 13 20 7 6 5 3 6 3
20 26 25 27 17 16 17 9 15 17 16 18 19 20 21 26 18 21 23 16 11 17 19 23 31 29 28 28 23 21 24 24 24 25 25 23 20 17 13 11 12 11 18 12 9 7 7 7 2
21 19 19 27 26 26 30 23 14 17 15 15 18 21 21 21 19 20 30 35 4 18 24 28 31 29 29 28 25 23 24 21 25 25 25 22 18 13 7 7 12 12 18 12 14 10 10 8 5
25 15 16 29 34 34 31 31 16 17 13 14 19 19 20 19 20 21 27 36 6 20 28 34 32 28 28 29 27 25 24 23 24 24 23 21 17 12 9 11 8 5 13 11 13 10 19 21 10
35 18 26 27 29 29 31 31 21 18 14 14 20 19 19 20 15 26 30 22 13 20 31 36 30 28 28 30 28 25 23 21 24 23 23 21 18 14 13 10 9 8 6 16 24 3 3 20 13
39 26 20 28 13 23 30 31 17 22 10 14 19 20 20 23 21 28 20 18 15 22 29 38 32 30 29 30 29 25 24 24 24 23 22 22 19 16 16 14 11 8 7 24 28 28 29 13 20
42 30 31 28 18 19 12 18 19 17 15 15 18 25 25 24 26 23 24 20 26 25 32 38 34 32 31 31 29 28 27 26 23 23 22 21 18 16 14 16 13 11 13 21 25 27 28 27 27
44 40 40 38 27 33 31 8 8 19 18 16 16 24 27 27 27 29 29 22 39 31 37 37 35 33 33 32 31 29 29 26 21 23 24 21 18 16 14 16 14 14 16 19 22 24 26 26 24
42 42 41 40 38 38 36 34 17 15 19 13 14 21 29 27 29 31 36 43 42 23 40 37 35 34 33 33 32 30 30 28 24 24 22 19 17 15 14 15 14 15 18 18 20 23 24 25 25
46 41 41 39 37 34 31 33 24 9 8 12 7 27 28 32 27 32 35 39 41 42 38 37 35 34 33 34 34 32 31 30 26 24 22 20 15 12 16 14 13 15 17 18 19 21 22 23 24
47 42 37 39 36 34 20 20 15 5 10 12 13 19 29 29 33 31 34 33 41 47 39 36 36 34 33 34 35 33 32 30 27 24 22 21 16 13 17 13 13 16 16 17 18 19 20 21 21
48 48 38 38 44 35 18 19 14 7 4 5 21 42 27 32 31 31 30 30 37 49 40 35 35 33 33 34 33 34 33 31 28 25 23 21 19 15 12 12 14 15 15 16 17 17 19 21 21
43 39 40 41 44 43 27 24 24 11 2 14 25 37 37 31 30 29 29 30 36 44 42 33 32 33 32 33 34 32 32 32 30 27 24 22 19 16 12 11 12 14 14 16 16 16 18 20 20
46 48 45 36 39 41 36 32 18 9 7 9 27 31 41 30 30 27 29 22 28 28 26 26 29 31 31 31 32 33 32 31 30 28 25 21 18 14 12 10 10 11 13 15 15 17 17 18 18
47 43 44 47 45 41 41 34 17 9 17 32 24 20 40 31 26 26 23 19 24 25 26 26 28 30 30 29 29 31 30 29 29 29 27 23 19 16 12 8 8 9 11 13 13 14 14 15 16
Wind_Direction
54 45 263 230 212 188 146 23 96 108 146 171 62 77 62 144 148 86 104 100 91 96 98 79 81 83 83 77 68 69 63 66 68 63 54 46 49 52 40 46 54 67 69 71 68 62 60 64 74
61 51 288 217 179 63 46 99 90 136 105 72 60 70 2 8 79 91 96 100 95 102 92 81 82 83 74 68 74 75 72 72 70 67 55 46 42 37 16 30 44 61 70 69 65 55 38 49 65
48 341 194 194 178 24 52 81 84 95 90 66 71 36 342 75 60 93 94 96 92 91 87 88 91 83 73 72 79 75 76 79 73 72 68 62 59 79 3 23 48 69 78 77 71 64 47 346 24
39 45 303 210 240 255 233 87 103 104 79 182 71 35 343 201 116 103 97 91 87 87 87 89 88 81 78 80 78 80 80 78 82 81 74 79 77 74 63 61 63 69 107 115 100 102 147 183 157
29 322 356 185 329 53 126 93 111 94 69 88 65 72 50 44 104 105 97 93 91 86 90 93 86 90 86 87 85 88 93 91 92 92 90 99 100 88 86 94 96 137 151 133 123 126 138 162 165
24 259 321 344 44 66 83 87 113 81 96 67 54 73 56 100 110 114 111 98 94 91 92 96 93 96 93 90 93 94 102 101 108 107 114 122 117 122 143 137 149 146 142 142 135 130 141 151 168
19 147 235 302 43 137 73 95 98 87 92 90 96 64 98 116 120 123 113 100 92 96 99 104 106 104 97 97 103 104 108 114 115 118 128 134 137 124 140 159 151 140 137 139 133 125 130 141 161
93 99 284 237 207 339 172 87 108 101 94 98 96 101 126 131 111 85 98 106 110 107 104 113 113 113 109 107 113 117 120 125 124 111 112 135 124 134 157 160 157 149 139 140 133 128 123 110 105
51 281 293 262 248 53 170 67 94 100 93 97 109 104 130 129 124 100 97 106 111 109 116 119 120 122 117 118 124 122 128 129 127 104 54 114 105 104 130 147 152 128 129 135 128 112 125 105 86
280 17 37 225 278 82 102 78 97 79 98 78 56 86 123 130 135 119 110 109 113 120 125 122 127 126 120 124 126 121 128 140 129 118 108 99 99 106 125 128 134 125 126 127 127 117 104 110 108
188 302 72 201 90 105 106 85 93 91 76 96 95 113 125 129 125 125 122 115 125 128 131 123 122 128 128 129 135 128 131 117 120 93 104 109 99 100 107 126 122 123 127 128 134 127 118 109 113
292 28 101 143 103 101 57 70 45 82 80 102 105 123 129 127 128 126 135 130 132 132 126 121 125 130 143 154 151 125 91 119 115 113 116 106 103 107 120 119 122 119 118 131 141 139 130 123 133
280 297 142 70 58 76 61 60 58 80 93 97 105 124 130 129 132 132 132 137 141 137 127 125 110 129 119 150 139 141 125 111 90 98 117 94 214 115 145 146 131 121 119 115 129 147 150 128 118
259 276 237 47 1 74 58 36 77 103 94 95 112 132 128 132 133 138 140 142 131 102 110 101 97 146 162 155 149 141 134 125 105 95 87 80 96 120 127 137 123 120 116 123 123 150 144 271 195
273 256 268 338 43 68 58 24 20 108 100 105 118 133 133 136 138 148 158 146 109 109 107 105 130 159 159 158 147 147 131 127 107 92 97 100 98 122 127 133 125 121 125 103 109 295 96 110 100
265 270 278 253 354 43 41 360 149 119 109 112 121 130 138 143 144 150 143 115 116 110 109 107 149 152 157 155 153 158 128 109 116 100 103 99 108 114 121 125 119 114 102 103 116 125 110 109 115
266 262 263 243 274 294 276 333 147 125 115 119 130 135 142 153 142 142 143 224 120 119 118 124 146 146 152 156 158 154 135 115 108 109 103 115 126 134 135 138 129 122 105 99 103 103 98 96 65
270 277 274 254 262 279 249 201 146 146 127 127 134 140 146 150 150 149 161 190 163 126 131 138 146 140 142 155 159 157 141 145 113 106 106 119 137 144 157 147 128 118 100 100 100 93 93 96 85
279 303 295 272 248 272 262 221 169 153 134 134 146 142 147 148 153 152 154 166 160 132 142 158 151 137 140 152 157 155 145 142 112 105 117 135 145 157 154 138 134 134 111 107 98 92 81 77 83
259 287 271 274 254 266 239 242 181 165 158 148 155 148 146 149 150 158 159 154 155 143 154 174 147 141 144 152 156 162 162 149 117 107 117 135 139 141 137 145 137 132 124 96 67 69 98 81 17
248 261 274 187 317 252 255 254 170 175 152 151 160 153 153 155 153 157 156 158 158 149 154 176 156 152 151 157 162 161 163 134 123 123 123 134 137 143 133 125 129 134 124 66 47 51 44 83 75
243 255 241 258 285 197 107 276 163 165 161 157 159 170 163 160 161 158 157 157 158 155 161 173 165 162 162 163 166 160 156 148 156 149 141 142 152 144 151 119 111 116 97 67 53 47 45 44 47
241 243 245 234 206 257 254 311 178 164 164 161 158 168 172 167 166 167 166 162 173 162 169 170 168 166 168 170 176 167 163 162 173 145 132 149 156 156 153 118 105 101 92 76 61 51 41 43 48
246 244 251 253 261 265 255 262 301 189 185 161 162 169 175 168 169 169 171 180 186 160 174 170 168 167 168 171 173 172 166 162 173 140 141 163 170 169 154 119 107 92 78 75 65 55 48 44 40
241 248 249 252 248 253 238 252 295 294 192 154 161 184 173 174 162 169 169 173 177 190 170 169 168 167 167 172 172 170 169 170 167 165 156 171 183 173 144 119 107 86 81 72 68 58 52 44 42
238 244 249 248 254 249 281 286 295 40 120 145 163 179 178 172 173 167 170 169 178 192 171 168 168 167 166 169 174 172 173 172 165 165 167 178 201 152 113 116 97 80 77 68 65 64 58 51 47
236 241 250 252 245 257 281 280 302 345 315 232 205 193 168 174 172 171 170 170 173 185 174 169 169 168 168 171 171 175 177 175 174 170 175 186 192 162 138 116 88 80 76 67 62 65 56 52 47
245 247 246 247 245 251 268 275 277 313 233 164 222 213 201 172 170 169 172 172 172 178 178 168 168 169 168 171 173 172 175 178 181 181 182 184 188 189 135 110 87 74 67 62 60 59 54 49 47
239 240 243 254 250 251 259 268 293 276 272 252 231 237 191 170 170 166 170 177 172 171 169 167 168 169 170 169 172 176 178 179 182 183 181 178 171 155 135 115 95 81 69 58 58 55 55 51 49
242 244 242 239 240 251 255 261 285 312 306 255 268 269 180 173 168 167 164 175 176 173 169 168 168 170 171 171 172 175 175 177 179 185 186 182 176 175 169 132 103 93 68 61 62 59 59 54 53